Regional Weather Roundup
Issued by NWS Midland/Odessa, TX

Skip options and go directly to product.
Home | Oldest Version | Previous Version | Current Version | All | Text Only | Save Text | Print | Product List | Glossary Off

Skip product version selection by date and time.   

573
ASUS44 KMAF 280210
RWRMAF
MIDLAND AREA WEATHER ROUNDUP
NATIONAL WEATHER SERVICE MIDLAND TX
900 PM CDT WED JUL 27 2016

...IN SOUTHWEST TEXAS AND SOUTHEAST NEW MEXICO...

CITY           SKY/WX    TMP DP  RH WIND       PRES   REMARKS
ALPINE         PTCLDY    81  56  41 E7        30.13R
ANDREWS        FAIR      84  61  44 N7        29.99S
ARTESIA        CLOUDY    93  52  24 E5        30.01R
BIG SPRING     CLEAR     86  58  37 E5        29.97R
CARLSBAD       CLOUDY    91  55  29 SE12      29.97R
DRYDEN           N/A     86  69  56 SE16G24   29.91R
FORT STOCKTON  CLEAR     87  58  37 E9        29.97R
GUAD PASS      CLEAR     81  50  33 E21       30.15R
HOBBS          CLOUDY    82  57  42 NE9       30.04S
MARFA          CLEAR     80  55  42 NE12      30.11R
MIDLAND AIRPK  PTCLDY    90  58  34 SE16      29.98R
MIDLAND INTL   PTCLDY    88  62  41 SE12      29.97R
ODESSA         MOCLDY    89  62  40 S12       29.98R
PECOS          CLEAR     91  53  27 E9        29.93S
PRESIDIO       FAIR      92  58  32 E10G16    29.92R
SEMINOLE       CLEAR     83  59  45 CALM      30.01F
SNYDER           N/A     88  64  44 SE5       29.95R
WINK           CLEAR     91  52  26 E8        29.94R
$$
...OTHER STATIONS IN TEXAS...

CITY           SKY/WX    TMP DP  RH WIND       PRES   REMARKS
ABILENE        PTCLDY    82  68  62 S17G24    29.96R
AMARILLO       CLEAR     74  60  61 E24G31    30.11R
AUSTIN         CLOUDY    80  72  76 E3        29.92R
BROWNSVILLE    CLOUDY    84  75  74 SE15G22   29.90R
CORPUS CHRISTI MOCLDY    85  77  77 SE16      29.91R
DALLAS FTW     CLOUDY    87  71  58 S8        29.91R
DEL RIO        CLOUDY    84  69  60 SE7       29.89R
EL PASO        MOCLDY    85  60  42 S8        30.01R
HOUSTON INT    CLOUDY    83  73  72 S6        29.94R
LUBBOCK        MOCLDY    82  59  45 N6        30.02R
SAN ANGELO     MOCLDY    84  69  60 SE10      29.94R
SAN ANTONIO    MOCLDY    77  74  90 E7        29.92S
WACO           PTCLDY    82  72  71 SW6       29.92R
WICHITA FALLS  NOT AVBL
$$
...OTHER LOCATIONS IN NEW MEXICO...

CITY           SKY/WX    TMP DP  RH WIND       PRES   REMARKS
ALAMAGORDO     CLEAR     86  57  37 S8        30.04R
ALBUQUERQUE    CLOUDY    85  44  23 SE15      30.10S
CANNON AFB     MOCLDY    77  61  58 S5        30.08F
CLOVIS         CLEAR     77  57  50 SW8       30.08F
HOLLOMAN AFB   CLEAR     90  55  30 S10       30.01R
ROSWELL        PTCLDY    81  60  48 S9        30.03R
RUIDOSO          N/A     73  50  43 SE7       30.29R
SANTA FE       CLEAR     81  47  30 S14       30.19R
TRUTH OR CONSE PTCLDY    88  54  31 E8        30.06R
TUCUMCARI      CLOUDY    79  59  50 SE9       30.05S
$$

USA.gov is the U.S. government's official web portal to all federal, state and local government web resources and services.